Weather History for Pasco, WA

Change the Weather History Date:

Tuesday, March 18, 2014

  Actual Average Record
Temperature  
Mean Temperature 41 °F 47 °F  
Max Temperature 57 °F 60 °F 71 °F (2004)
Min Temperature 24 °F 34 °F 22 °F (2010)
Degree Days  
Heating Degree Days 24 18  
Month to date heating degree days 330 369  
Since 1 July heating degree days 4559 4252  
Cooling Degree Days 0 0  
Month to date cooling degree days 0 0  
Year to date cooling degree days 0 0  
Moisture  
Dew Point 26 °F    
Average Humidity 59    
Maximum Humidity 92    
Minimum Humidity 26    
Precipitation  
Precipitation 0.00 in - 0.18 in (1949)
Month to date precipitation 0.42  
Year to date precipitation 1.40  
Snow  
Snow 0.00 in - - ()
Snow Depth 0.00 in    
Sea Level Pressure  
Sea Level Pressure 30.27 in    
Wind  
Wind Speed 4 mph (SSE)    
Max Wind Speed 13 mph    
Max Gust Speed 17 mph    
Visibility 10 miles    
Events      
T = Trace of Precipitation, MM = Missing Value Source: NWS Daily Summary

Daily Weather History Graph

Daily Weather History Graph

Search for Another Location

Airport:

Trip Planner

Search our weather history database for the weather conditions in past years. The results will help you decide how hot, cold, wet, or windy it might be!

Date:

Astronomy

Mar. 18, 2014 Rise Set
Actual Time 7:03 AM PDT 7:06 PM PDT
Civil Twilight 6:33 AM PDT 7:36 PM PDT
Nautical Twilight 5:58 AM PDT 8:11 PM PDT
Astronomical Twilight 5:22 AM PDT 8:47 PM PDT
Moon 9:38 PM PDT (3/18) 7:47 AM PDT (3/18)
Length of Visible Light 13h 03m
Length of Day
12h 03m
Waning Gibbous, 96% of the Moon is Illuminated
Mar 18
Waning Gibbous
Mar 23
Last Quarter
Mar 30
New
Apr 7
First Quarter
Apr 15
Full

Hourly Weather History & Observations

Time (PDT) Temp. Windchill Dew Point Humidity Pressure Visibility Wind Dir Wind Speed Gust Speed Precip Events Conditions
12:53 AM 35.1 °F 31.0 °F 25.0 °F 67% 30.27 in 10.0 mi WNW 4.6 mph - N/A   Clear
1:53 AM 33.1 °F 30.0 °F 24.1 °F 70% 30.27 in 10.0 mi WSW 3.5 mph - N/A   Clear
2:53 AM 34.0 °F - 25.0 °F 70% 30.28 in 10.0 mi Calm Calm - N/A   Clear
3:53 AM 26.1 °F 21.9 °F 21.9 °F 84% 30.30 in 10.0 mi WNW 3.5 mph - N/A   Clear
4:53 AM 28.0 °F 21.7 °F 25.0 °F 88% 30.30 in 10.0 mi East 5.8 mph - N/A   Clear
5:53 AM 28.9 °F 23.9 °F 26.1 °F 89% 30.32 in 10.0 mi ESE 4.6 mph - N/A   Clear
6:53 AM 27.0 °F - 24.1 °F 89% 30.32 in 10.0 mi Calm Calm - N/A   Clear
7:53 AM 30.9 °F 25.2 °F 28.9 °F 92% 30.32 in 10.0 mi East 5.8 mph - N/A   Clear
8:53 AM 39.0 °F 36.8 °F 30.9 °F 73% 30.33 in 10.0 mi ESE 3.5 mph - N/A   Clear
9:53 AM 44.1 °F 39.5 °F 30.9 °F 60% 30.33 in 10.0 mi SSW 8.1 mph - N/A   Clear
10:53 AM 48.0 °F - 30.0 °F 50% 30.33 in 10.0 mi South 8.1 mph - N/A   Clear
11:53 AM 51.1 °F - 27.0 °F 39% 30.32 in 10.0 mi South 9.2 mph - N/A   Clear
12:53 PM 52.0 °F - 23.0 °F 32% 30.31 in 10.0 mi SSW 9.2 mph - N/A   Clear
1:53 PM 53.1 °F - 24.1 °F 32% 30.28 in 10.0 mi South 6.9 mph - N/A   Clear
2:53 PM 54.0 °F - 21.9 °F 29% 30.27 in 10.0 mi Calm Calm - N/A   Clear
3:53 PM 55.9 °F - 21.9 °F 27% 30.26 in 10.0 mi North 4.6 mph - N/A   Partly Cloudy
4:53 PM 55.9 °F - 21.9 °F 27% 30.24 in 10.0 mi North - - N/A   Clear
5:53 PM 54.0 °F - 21.9 °F 29% 30.22 in 10.0 mi SE 10.4 mph - N/A   Clear
6:53 PM 52.0 °F - 24.1 °F 34% 30.21 in 10.0 mi SE 8.1 mph - N/A   Clear
7:53 PM 50.0 °F - 27.0 °F 41% 30.21 in 10.0 mi South 4.6 mph - N/A   Clear
8:53 PM 46.9 °F - 28.0 °F 48% 30.20 in 10.0 mi SE 4.6 mph - N/A   Clear
9:53 PM 45.0 °F 42.6 °F 28.0 °F 52% 30.18 in 10.0 mi SE 4.6 mph - N/A   Clear
10:53 PM 43.0 °F - 30.0 °F 60% 30.17 in 10.0 mi Calm Calm - N/A   Clear
11:53 PM 39.0 °F - 30.0 °F 70% 30.17 in 10.0 mi Calm Calm - N/A   Clear